Weather History for Portage Glacier, AK

Change the Weather History Date:

Wednesday, February 13, 2013

  Actual Average Record
Temperature  
Mean Temperature 34 °F -  
Max Temperature 36 °F - - ()
Min Temperature 32 °F - - ()
Degree Days  
Heating Degree Days 31    
Moisture  
Dew Point 30 °F    
Average Humidity 86    
Maximum Humidity 100    
Minimum Humidity 73    
Precipitation  
Precipitation 0.60 in - - ()
Sea Level Pressure  
Sea Level Pressure 29.80 in    
Wind  
Wind Speed 16 mph (ESE)    
Max Wind Speed 32 mph    
Max Gust Speed 55 mph    
Visibility 3 miles    
Events Fog , Rain , Snow    
T = Trace of Precipitation, MM = Missing Value Source: NWS Daily Summary

Daily Weather History Graph

Daily Weather History Graph

Search for Another Location

Airport:

Trip Planner

Search our weather history database for the weather conditions in past years. The results will help you decide how hot, cold, wet, or windy it might be!

Date:

Astronomy

Feb. 13, 2013 Rise Set
Actual Time 8:40 AM AKST 5:39 PM AKST
Civil Twilight 7:55 AM AKST 6:25 PM AKST
Nautical Twilight 7:05 AM AKST 7:15 PM AKST
Astronomical Twilight 6:15 AM AKST 8:04 PM AKST
Moon 8:59 AM AKST (2/13) 11:19 PM AKST (2/13)
Length of Visible Light 10h 30m
Length of Day
8h 59m
Waxing Crescent, 15% of the Moon is Illuminated
Feb 13
Waxing Crescent
Feb 17
First Quarter
Feb 25
Full
Mar 4
Last Quarter
Mar 11
New

Hourly Weather History & Observations

Time (AKST) Temp. Windchill Dew Point Humidity Pressure Visibility Wind Dir Wind Speed Gust Speed Precip Events Conditions
12:00 AM 33.1 °F 23.0 °F 30.0 °F 89% 29.74 in 0.8 mi East 15.0 mph 28.8 mph 0.00 in Snow Light Snow
12:16 AM 34.0 °F 24.2 °F 30.0 °F 85% 29.74 in 1.5 mi ESE 15.0 mph 39.1 mph 0.01 in Snow Light Snow
12:53 AM 33.1 °F 23.4 °F 30.0 °F 89% 29.75 in 1.5 mi ESE 13.8 mph 26.5 mph 0.03 in Snow Light Snow
1:17 AM 33.1 °F 24.4 °F 30.9 °F 92% 29.76 in 0.8 mi East 11.5 mph 26.5 mph 0.02 in Snow Light Snow
1:53 AM 32.0 °F 26.4 °F 32.0 °F 100% 29.77 in 0.5 mi Variable 5.8 mph 23.0 mph 0.07 in Fog , Snow Snow
3:20 AM 33.1 °F 24.4 °F 32.0 °F 96% 29.78 in 1.0 mi SSE 11.5 mph 24.2 mph 0.02 in Snow Light Snow
3:33 AM 33.1 °F 24.9 °F 32.0 °F 96% 29.78 in 0.8 mi SE 10.4 mph 19.6 mph 0.03 in Snow Light Snow
3:53 AM 32.0 °F 24.2 °F 32.0 °F 100% 29.79 in 0.8 mi SE 9.2 mph 18.4 mph 0.07 in Snow Light Snow
4:08 AM 34.0 °F 25.5 °F 32.0 °F 92% 29.78 in 1.2 mi East 11.5 mph 20.7 mph 0.02 in Snow Light Snow
4:21 AM 34.0 °F 28.0 °F 32.0 °F 92% 29.78 in 1.5 mi Variable 6.9 mph 20.7 mph 0.03 in Snow Light Snow
4:53 AM 33.1 °F 26.9 °F 32.0 °F 96% 29.79 in 1.5 mi SE 6.9 mph - 0.05 in Snow Light Snow
5:28 AM 33.1 °F 26.1 °F 32.0 °F 96% 29.79 in 2.0 mi SE 8.1 mph 17.3 mph 0.02 in Snow Light Snow
5:41 AM 32.0 °F 25.6 °F 32.0 °F 100% 29.79 in 1.8 mi SSE 6.9 mph - 0.02 in Snow Light Snow
5:50 AM 32.0 °F - 32.0 °F 100% 29.79 in 1.5 mi North - - 0.03 in Snow Light Snow
5:53 AM 33.1 °F - 32.0 °F 96% 29.80 in 1.8 mi North - - 0.03 in Snow Light Snow
6:00 AM 33.1 °F - 32.0 °F 96% 29.79 in 2.5 mi North - - 0.00 in Snow Light Snow
6:10 AM 32.0 °F 26.4 °F 32.0 °F 100% 29.79 in 3.0 mi Variable 5.8 mph - 0.00 in Snow Light Snow
6:53 AM 33.1 °F 25.5 °F 32.0 °F 96% 29.80 in 8.0 mi SSE 9.2 mph 18.4 mph 0.00 in   Overcast
7:39 AM 33.1 °F 25.5 °F 32.0 °F 96% 29.80 in 7.0 mi SSE 9.2 mph - 0.00 in Snow Light Snow
7:53 AM 33.1 °F 26.9 °F 32.0 °F 96% 29.81 in 8.0 mi SSE 6.9 mph - 0.00 in Snow Light Snow
8:25 AM 33.1 °F 26.1 °F 32.0 °F 96% 29.82 in 10.0 mi SSE 8.1 mph - 0.00 in   Overcast
8:53 AM 34.0 °F 26.0 °F 30.9 °F 89% 29.83 in 10.0 mi SE 10.4 mph - 0.00 in   Overcast
9:53 AM 35.1 °F 25.5 °F 30.0 °F 82% 29.85 in 10.0 mi East 15.0 mph 24.2 mph N/A   Scattered Clouds
10:53 AM 36.0 °F 26.0 °F 28.0 °F 73% 29.87 in 10.0 mi East 17.3 mph 32.2 mph N/A   Overcast
11:53 AM 36.0 °F 26.0 °F 28.9 °F 76% 29.86 in 7.0 mi ESE 17.3 mph 26.5 mph 0.00 in Snow Light Snow
12:07 PM 36.0 °F 26.7 °F 28.9 °F 76% 29.86 in 2.5 mi East 15.0 mph 31.1 mph 0.00 in Snow Light Snow
12:17 PM 36.0 °F 24.4 °F 28.9 °F 76% 29.85 in 6.0 mi East 23.0 mph 34.5 mph 0.00 in Snow Light Snow
12:53 PM 36.0 °F 26.7 °F 28.9 °F 76% 29.86 in 2.5 mi East 15.0 mph 29.9 mph 0.00 in Snow Light Snow
1:01 PM 35.1 °F 23.5 °F 30.9 °F 85% 29.84 in 1.2 mi East 21.9 mph 34.5 mph 0.00 in Snow Light Snow
1:08 PM 36.0 °F 26.0 °F 30.0 °F 79% 29.85 in 3.0 mi East 17.3 mph 34.5 mph 0.00 in Snow Light Snow
1:13 PM 35.1 °F 24.8 °F 30.9 °F 85% 29.84 in 2.5 mi East 17.3 mph 34.5 mph 0.01 in Snow Light Snow
1:24 PM 36.0 °F 25.6 °F 30.0 °F 79% 29.84 in 8.0 mi East 18.4 mph 32.2 mph 0.01 in   Overcast
1:46 PM 36.0 °F 23.9 °F 28.9 °F 76% 29.83 in 10.0 mi East 25.3 mph 43.7 mph 0.01 in Rain Light Rain
1:53 PM 36.0 °F 24.2 °F 28.9 °F 76% 29.84 in 10.0 mi East 24.2 mph 43.7 mph 0.01 in Rain Light Rain
2:16 PM 36.0 °F 25.0 °F 30.0 °F 79% 29.82 in 2.5 mi East 20.7 mph 39.1 mph 0.00 in Snow Light Snow
2:24 PM 36.0 °F 23.7 °F 30.0 °F 79% 29.83 in 1.0 mi East 26.5 mph 41.4 mph 0.00 in Snow Light Snow
2:32 PM 36.0 °F 24.7 °F 30.0 °F 79% 29.83 in 0.5 mi ENE 21.9 mph 44.9 mph 0.02 in Snow Snow
2:41 PM 36.0 °F 23.0 °F 30.0 °F 79% 29.82 in 2.0 mi East 29.9 mph 48.3 mph 0.02 in Snow Light Snow
2:49 PM 35.6 °F 23.7 °F 30.2 °F 81% 29.82 in 5.0 mi East 24.2 mph 48.3 mph 0.02 in Snow Light Snow
2:53 PM 36.0 °F 22.6 °F 28.9 °F 76% 29.82 in 7.0 mi East 32.2 mph 43.7 mph 0.02 in Rain Light Rain
3:29 PM 35.1 °F 25.5 °F 30.0 °F 82% 29.82 in 1.8 mi East 15.0 mph 40.3 mph 0.00 in Snow Light Snow
3:38 PM 35.1 °F 22.5 °F 30.0 °F 82% 29.82 in 3.0 mi East 26.5 mph 47.2 mph 0.00 in Snow Light Snow
3:53 PM 36.0 °F 24.4 °F 28.9 °F 76% 29.82 in 9.0 mi East 23.0 mph 47.2 mph 0.00 in   Overcast
4:06 PM 36.0 °F 23.9 °F 28.9 °F 76% 29.80 in 5.0 mi East 25.3 mph 39.1 mph 0.00 in Snow Light Snow
4:15 PM 35.1 °F 22.5 °F 28.9 °F 78% 29.80 in 7.0 mi East 26.5 mph 43.7 mph 0.00 in   Overcast
4:45 PM 35.1 °F 23.8 °F 30.0 °F 82% 29.80 in 1.8 mi ENE 20.7 mph 39.1 mph 0.00 in Snow Light Snow
4:53 PM 35.1 °F 23.8 °F 30.0 °F 82% 29.80 in 1.8 mi East 20.7 mph 40.3 mph 0.00 in Snow Light Snow
5:00 PM 35.1 °F 23.3 °F 28.9 °F 78% 29.78 in 2.5 mi East 23.0 mph 40.3 mph 0.00 in Snow Light Snow
5:09 PM 35.1 °F 25.9 °F 30.0 °F 82% 29.78 in 1.0 mi ESE 13.8 mph 42.6 mph 0.01 in Snow Light Snow
5:37 PM 36.0 °F 24.4 °F 30.0 °F 79% 29.76 in 3.0 mi ESE 23.0 mph 42.6 mph 0.02 in Snow Light Snow
5:53 PM 35.1 °F 23.8 °F 30.0 °F 82% 29.77 in 2.0 mi ESE 20.7 mph 47.2 mph 0.02 in Snow Light Snow
6:03 PM 35.1 °F 23.8 °F 30.0 °F 82% 29.76 in 1.2 mi East 20.7 mph 43.7 mph 0.01 in Snow Light Snow
6:11 PM 34.0 °F 21.0 °F 30.0 °F 85% 29.77 in 0.8 mi East 26.5 mph 43.7 mph 0.02 in Snow Light Snow
6:19 PM 34.0 °F 23.4 °F 30.0 °F 85% 29.77 in 0.5 mi East 17.3 mph 49.5 mph 0.03 in Fog , Snow Snow
6:53 PM 35.1 °F 22.5 °F 30.9 °F 85% 29.76 in 0.8 mi East 26.5 mph 52.9 mph 0.08 in Snow Light Snow
7:18 PM 34.0 °F 20.8 °F 30.0 °F 85% 29.75 in 1.0 mi ESE 27.6 mph 49.5 mph 0.03 in Snow Light Snow
7:35 PM 35.1 °F 22.7 °F 30.0 °F 82% 29.75 in 1.2 mi ESE 25.3 mph 55.2 mph 0.04 in Snow Light Snow
7:41 PM 34.0 °F 21.0 °F 30.0 °F 85% 29.75 in 0.8 mi East 26.5 mph 47.2 mph 0.05 in Snow Light Snow
7:53 PM 34.0 °F 22.4 °F 30.0 °F 85% 29.76 in 1.0 mi East 20.7 mph 38.0 mph 0.06 in Snow Light Snow
8:06 PM 34.0 °F 20.8 °F 30.0 °F 85% 29.76 in 0.8 mi East 27.6 mph 47.2 mph 0.02 in Snow Light Snow
8:53 PM 34.0 °F 20.1 °F 30.9 °F 89% 29.76 in 0.8 mi East 31.1 mph 42.6 mph 0.07 in Snow Light Snow
9:53 PM 35.1 °F 23.5 °F 30.0 °F 82% 29.73 in 1.5 mi East 21.9 mph 43.7 mph 0.05 in Snow Light Snow
10:53 PM 35.1 °F 22.5 °F 30.0 °F 82% 29.73 in 1.0 mi ESE 26.5 mph 43.7 mph 0.02 in Snow Light Snow
11:53 PM 35.1 °F 24.1 °F 30.0 °F 82% 29.73 in 1.2 mi ESE 19.6 mph 34.5 mph 0.02 in Snow Light Snow